Location: Dennehotso
(36.8461°N, 109.8435°W)
Time: 11:48:32
(UTC+00:00)

X-37B - Visible Passes

Search period start: 08 March 2021 00:00
Search period end: 18 March 2021 00:00
Orbit: 383 x 391 km, 45.0° (Epoch: 27 February)

Date Brightness Start Highest point End Pass type
(mag) Time Alt. Az. Time Alt. Az. Time Alt. Az.
09 Mar 2.8 02:39:34 10° S 02:40:32 15° S 02:40:32 15° S visible
10 Mar 2.8 03:16:39 10° SW 03:17:55 22° SW 03:17:55 22° SW visible
11 Mar 1.3 02:18:35 10° SSW 02:21:33 35° SE 02:22:51 24° E visible
12 Mar 1.0 02:56:34 10° WSW 02:59:44 58° NNW 02:59:57 56° N visible
13 Mar 0.6 01:58:11 10° SW 02:01:22 75° SSE 02:04:34 10° ENE visible
13 Mar 3.3 03:35:30 10° WNW 03:36:56 19° NW 03:36:56 19° NW visible
14 Mar 2.0 02:36:43 10° W 02:39:42 35° NNW 02:41:29 19° NE visible
15 Mar 2.8 03:15:51 10° WNW 03:18:14 20° N 03:18:14 20° N visible
16 Mar 2.5 02:17:01 10° WNW 02:19:45 25° NNW 02:22:29 10° NE visible
16 Mar 4.1 03:54:43 10° NW 03:54:55 11° NW 03:54:55 11° NW visible
17 Mar 2.8 02:56:07 10° NW 02:58:28 18° N 02:59:15 17° NNE visible
